This demonstration page uses our WeatherBlox Daily Observations layout. Learn more.

Left ArrowRight Arrow

39.51506, -84.39828

Hourly Observations for January 7, 2021

Temp ( °F °C ) Dew Point ( °F °C ) Humidity (%) Winds ( mph kmh ) Pressure ( in mb ) Visibility ( mi km ) Precip ( " mm )
12:15 am 00:15 Cloudy 34 1.3 29 -1.6 81 81 NNE 5 7 30.34 1027 10 16 N/A
12:35 am 00:35 Cloudy 34 1.2 29 -1.5 82 82 NE 3 6 30.34 1028 10 16 N/A
12:55 am 00:55 Cloudy 34 1.3 29 -1.6 81 81 N 3 6 30.34 1027 10 16 N/A
1:15 am 01:15 Cloudy 34 1.1 29 -1.4 84 84 N 3 6 30.34 1028 10 16 N/A
1:35 am 01:35 Cloudy 34 1.2 29 -1.4 83 83 N 3 6 30.34 1028 10 16 N/A
1:55 am 01:55 Cloudy 34 1.1 30 -1.3 84 84 NNE 5 7 30.34 1028 10 16 N/A
2:15 am 02:15 Cloudy 34 1.2 30 -1.2 84 84 NNE 5 7 30.34 1028 10 16 N/A
2:35 am 02:35 Cloudy 34 1.2 30 -1.1 85 85 N 5 7 30.34 1028 10 16 N/A
2:55 am 02:55 Cloudy 34 1.2 30 -1.1 85 85 NNE 6 9 30.34 1028 10 16 N/A
3:15 am 03:15 Cloudy 35 1.4 30 -0.9 85 85 NNE 3 6 30.35 1028 10 16 N/A
3:35 am 03:35 Cloudy 34 1.3 31 -0.8 86 86 NNE 3 6 30.35 1028 10 16 N/A
3:55 am 03:55 Cloudy 34 1.3 31 -0.7 87 87 NE 5 7 30.34 1027 10 16 N/A
4:15 am 04:15 Cloudy 34 1.2 31 -0.5 89 89 NNE 5 7 30.33 1027 10 16 N/A
4:35 am 04:35 Cloudy 34 1.1 31 -0.5 89 89 NNE 3 6 30.33 1027 10 16 N/A
4:55 am 04:55 Cloudy 34 1.2 31 -0.4 89 89 NNE 5 7 30.33 1027 10 16 N/A
5:15 am 05:15 Cloudy 34 1 31 -0.4 90 90 NNE 3 6 30.33 1027 10 16 N/A
5:35 am 05:35 Cloudy 34 1.1 31 -0.3 91 91 NE 3 6 30.33 1027 10 16 N/A
5:55 am 05:55 Cloudy 34 1.2 31 -0.4 89 89 N 3 6 30.33 1027 10 16 N/A
6:15 am 06:15 Cloudy 34 1 31 -0.4 90 90 NE 3 6 30.33 1027 10 16 N/A
6:35 am 06:35 Cloudy 34 1.2 32 -0.2 91 91 NE 6 9 30.33 1027 10 16 N/A
6:55 am 06:55 Cloudy 34 1.1 31 -0.6 89 89 NNE 5 7 30.34 1028 10 16 N/A
7:15 am 07:15 Cloudy 34 1.2 31 -0.6 88 88 NNE 3 6 30.34 1028 10 16 N/A
7:35 am 07:35 Cloudy 34 1.1 31 -0.7 88 88 NNE 5 7 30.34 1028 10 16 N/A
7:55 am 07:55 Cloudy 34 1.1 31 -0.7 88 88 NNE 5 7 30.34 1028 10 16 N/A
8:15 am 08:15 Cloudy 34 1.2 31 -0.6 88 88 NNE 3 6 30.34 1028 10 16 N/A
8:35 am 08:35 Cloudy 35 1.6 30 -1.1 82 82 NE 6 9 30.34 1027 10 16 N/A
8:55 am 08:55 Cloudy 35 1.8 30 -1.3 80 80 NNE 6 9 30.34 1027 10 16 N/A
9:15 am 09:15 Cloudy 36 2.1 30 -1.2 79 79 NE 6 9 30.34 1027 10 16 N/A
9:35 am 09:35 Cloudy 36 2.3 30 -1.2 78 78 NE 6 9 30.35 1028 10 16 N/A
9:55 am 09:55 Cloudy 37 2.6 30 -1.2 76 76 NE 7 11 30.35 1028 10 16 N/A
10:15 am 10:15 Cloudy 37 3 29 -1.9 71 71 NE 8 13 30.35 1028 10 16 N/A
10:35 am 10:35 Cloudy 38 3.3 28 -2.4 67 67 ENE 9 15 30.35 1028 10 16 N/A
10:55 am 10:55 Cloudy 38 3.6 24 -4.2 57 57 E 13 20 30.34 1027 10 16 N/A
11:15 am 11:15 Cloudy 38 3.4 23 -4.9 55 55 E 15 24 30.33 1027 10 16 N/A
11:35 am 11:35 Cloudy 38 3.5 24 -4.4 57 57 ENE 13 20 30.32 1027 10 16 N/A
11:55 am 11:55 Cloudy 38 3.4 23 -4.8 55 55 NE 14 22 30.31 1026 10 16 N/A
12:15 pm 12:15 Cloudy 38 3.5 24 -4.7 55 55 ENE 13 20 30.30 1026 10 16 N/A
12:35 pm 12:35 Cloudy 38 3.6 24 -4.5 56 56 ENE 14 22 30.29 1026 10 16 N/A
12:55 pm 12:55 Cloudy 38 3.4 24 -4.2 58 58 NE 12 19 30.28 1025 10 16 N/A
1:15 pm 13:15 Cloudy 38 3.5 24 -4.3 57 57 NE 14 22 30.27 1025 10 16 N/A
1:35 pm 13:35 Cloudy 38 3.3 25 -3.9 60 60 ENE 15 24 30.27 1025 10 16 N/A
1:55 pm 13:55 Cloudy 38 3.4 25 -3.7 60 60 NE 14 22 30.26 1025 10 16 N/A
2:15 pm 14:15 Cloudy 38 3.1 25 -3.7 61 61 ENE 15 24 30.26 1025 10 16 N/A
2:35 pm 14:35 Cloudy 38 3.1 24 -4.2 59 59 ENE 12 19 30.26 1025 10 16 N/A
2:55 pm 14:55 Cloudy 37 3 25 -3.8 61 61 ENE 13 20 30.26 1025 10 16 N/A
3:15 pm 15:15 Cloudy 37 2.9 24 -4.5 59 59 ENE 14 22 30.26 1025 10 16 N/A
3:35 pm 15:35 Cloudy 37 3 24 -4.4 59 59 NE 13 20 30.26 1025 10 16 N/A
3:55 pm 15:55 Cloudy 37 2.9 24 -4.2 60 60 ENE 10 17 30.26 1025 10 16 N/A
4:15 pm 16:15 Cloudy 37 2.8 24 -4.2 60 60 ENE 13 20 30.26 1025 10 16 N/A
4:35 pm 16:35 Cloudy 37 2.7 25 -3.8 63 63 ENE 10 17 30.27 1025 10 16 N/A
4:55 pm 16:55 Cloudy 37 2.6 26 -3.5 64 64 NE 12 19 30.27 1025 10 16 N/A
5:15 pm 17:15 Cloudy 36 2.4 26 -3.1 67 67 NE 12 19 30.26 1025 10 16 N/A
5:35 pm 17:35 Cloudy 36 2.3 26 -3.6 65 65 NE 10 17 30.26 1025 10 16 N/A
5:55 pm 17:55 Cloudy 36 2.3 26 -3.6 65 65 ENE 14 22 30.25 1024 10 16 N/A
6:15 pm 18:15 Cloudy 36 2.1 25 -3.8 65 65 NE 10 17 30.25 1024 10 16 N/A
6:35 pm 18:35 Cloudy 36 2 24 -4.2 64 64 ENE 12 19 30.24 1024 10 16 N/A
6:55 pm 18:55 Cloudy 36 2 25 -3.8 66 66 NE 10 17 30.23 1024 10 16 N/A
7:15 pm 19:15 Cloudy 36 2.1 26 -3.5 67 67 NE 10 17 30.23 1024 10 16 N/A
7:35 pm 19:35 Cloudy 36 2 26 -3.3 68 68 NE 9 15 30.23 1024 10 16 N/A
7:55 pm 19:55 Cloudy 35 1.9 27 -2.7 72 72 NE 10 17 30.23 1024 10 16 N/A
8:15 pm 20:15 Cloudy 35 1.8 27 -2.9 71 71 NNE 12 19 30.24 1024 10 16 N/A
8:35 pm 20:35 Cloudy 35 1.6 28 -2.5 74 74 NNE 12 19 30.24 1024 10 16 N/A
8:55 pm 20:55 Cloudy 35 1.4 27 -2.7 74 74 NNE 14 22 30.24 1024 10 16 N/A
9:15 pm 21:15 Cloudy 34 1.2 27 -2.8 75 75 NE 12 19 30.24 1024 10 16 N/A
9:35 pm 21:35 Cloudy 34 1 27 -3 75 75 NNE 10 17 30.24 1024 10 16 N/A
9:55 pm 21:55 Cloudy 34 0.9 26 -3.2 74 74 NNE 12 19 30.24 1024 10 16 N/A
10:15 pm 22:15 Cloudy 33 0.7 26 -3.3 75 75 NE 13 20 30.24 1024 10 16 N/A
10:35 pm 22:35 Cloudy 33 0.5 26 -3.4 75 75 NNE 13 20 30.24 1024 10 16 N/A
10:55 pm 22:55 Cloudy 33 0.3 26 -3.4 76 76 NNE 10 17 30.24 1024 10 16 N/A
11:15 pm 23:15 Cloudy 32 0.2 26 -3.3 78 78 NNE 8 13 30.24 1024 10 16 N/A
11:35 pm 23:35 Cloudy 32 0.1 26 -3.5 77 77 NNE 9 15 30.25 1024 10 16 N/A
11:55 pm 23:55 Cloudy 32 0.1 26 -3.5 77 77 NNE 7 11 30.24 1024 10 16 N/A

Powered by AerisWeather